Rush City, MN

12:43 PM CDT on September 02, 2015 (GMT -0500)
Rush City Regional | | Change Station
CLOSE
Current Station
Airport
Location: Rush City,
Elevation: 922 ft
Nearby Weather Stations

Elev 922 ft 45.70 °N, 92.95 °W | Updated 8 minutes ago

Thunderstorm
Thunderstorm
71 °F
Feels Like 71 °F
N
6
Wind Variable Wind from East

Today
High -- | Low -- °F
--% Chance of Precip.
Yesterday
High -- | Low -- °F
Precip. -- in
6:33 AM 7:48 PM
Waning Gibbous, 78% visible
Pressure 29.95 in
Visibility 10.0 miles
Clouds Mostly Cloudy 1400 ft
Overcast 2900 ft
Dew Point 66 °F
Humidity 81%
Rainfall 0.31 in
Snow Depth Not available.
UV 2 out of 12
Pollen 10.00 out of 12
Air Quality Not available.
Flu Activity Not available.
METAR KROS 021735Z AUTO 09005KT 10SM TS BKN014 OVC029 22/19 A2995 RMK AO2 LTG DSNT SE T02190186
Pressure 29.95 in
Visibility 10.0 miles
Clouds Mostly Cloudy 1400 ft
Overcast 2900 ft
Dew Point 66 °F
Humidity 81%
Rainfall 0.31 in
Snow Depth Not available.
UV 2 out of 12
Pollen 10.00 out of 12
Air Quality Not available.
Flu Activity Not available.
METAR KROS 021735Z AUTO 09005KT 10SM TS BKN014 OVC029 22/19 A2995 RMK AO2 LTG DSNT SE T02190186

10-Day Weather Forecast

×

Almanac

Astronomy

Sep. 02, 2015 Rise Set
Actual Time
Civil Twilight
Nautical Twilight
Astronomical Twilight
Moon
Length of Visible Light
Length of Day
Tomorrow will be .
, % of the Moon is Illuminated

Today's Extremes

State Highs State Lows

Community

WunderPhotos

Upload Photos

1,851,789 photos uploaded!

WunderBlogs® & News

Nearby

Air Quality

  Air Quality AQ Index Pollutant
Not available.

Snow Depth

Station Depth Elevation

Earthquake Activity

City Distance Mag. Time & Date
Minimum magnitude displayed is 2.5.

Coastal Water Temperatures

Place Temperature

Stations

Nearby Weather Stations

Station Location Temp. Windchill Dew Point Humidity Wind Precip. Elev Updated Type